Location: Boiro
(42.6475°N, 8.8834°W)
Time: 02:31:37
(UTC+01:00)

S-56A Canister/Altair - Pass Details

Date: 08 December 2021
Orbit: 633 x 2499 km, 38.9° (Epoch: 18 January)

Event Time Altitude Azimuth Distance (km) Brightness Sun altitude
Rises 21:15:55 0° 197° (SSW) 6,117 12.3 -34.8°
Reaches altitude 10° 21:21:26 10° 184° (S) 4,971 11.6 -35.8°
Enters shadow 21:27:30 20° 160° (SSE) 3,963 10.9 -36.9°
